Regional Weather Roundup
Issued by NWS Charleston, SC

Current Version | Previous Version | Graphics & Text | Print | Product List | Glossary On
Versions: 1 2 3 4 5 6 7 8 9 10 11 12 13 14 15 16 17 18 19 20 21 22 23 24 25 26 27 28 29 30 31 32 33 34 35 36 37 38 39 40 41 42 43 44 45 46 47 48 49 50
000 ASUS42 KCHS 071427 RWRCHS REGIONAL WEATHER ROUNDUP NATIONAL WEATHER SERVICE CHARLESTON SC 1000 AM EDT TUE JUL 07 2015 NOTE: "FAIR" INDICATES FEW OR NO CLOUDS BELOW 12,000 FEET WITH NO SIGNIFICANT WEATHER AND/OR OBSTRUCTIONS TO VISIBILITY. NOT ALL STATIONS ARE QUALITY CONTROLLED BY THE NATIONAL WEATHER SERVICE. USE DATA WITH CAUTION...ESPECIALLY DEWPOINT OBSERVATIONS. SCZ027-030-031-034>040-042>050-071500- ...SOUTHEAST SOUTH CAROLINA... CITY SKY/WX TMP DP RH WIND PRES REMARKS N CHARLESTON MOSUNNY 84 72 67 SW6 30.16S WATERFRONT PAR N/A 82 74 77 VRB2 30.13F MOUNT PLEASANT FAIR 84 73 70 S6 30.17R HX 91 JOHNS ISLAND FAIR 86 73 66 W5 30.17R HX 93 PINOPOLIS NOT AVBL MONCKS CORNER FAIR 86 72 62 CALM 30.16S HX 92 SUMMERVILLE FAIR 82 73 74 CALM 30.16F BEAUFORT MCAS MOSUNNY 83 73 72 W6 30.16S BEAUFORT ARPT FAIR 86 73 66 CALM 30.16S HX 93 HILTON HEAD IS SUNNY 82 72 69 CALM 30.17S WALTERBORO SUNNY 82 72 69 SW5 30.16S ALLENDALE FAIR 82 73 74 CALM 30.15S ...SOUTHERN MIDLANDS AND PEE DEE... CITY SKY/WX TMP DP RH WIND PRES REMARKS GEORGETOWN NOT AVBL KINGSTREE NOT AVBL ORANGEBURG SUNNY 83 73 72 CALM 30.15S BARNWELL FAIR 86 75 70 W3 30.16F HX 95 AIKEN NOT AVBL MANNING FAIR 82 70 65 S5 30.15S COLUMBIA SUNNY 84 72 67 CALM 30.14S SUMTER MOSUNNY 83 73 70 VRB3 30.13S FLORENCE SUNNY 84 72 67 SW5 30.15R MYRTLE BEACH MOSUNNY 84 73 70 SW7 30.18S HX 91 N MYRTLE BEACH SUNNY 83 74 74 S9 30.16S $$ GAZ063-065-086>088-099>101-113>116-118-119-134>141-150-071500- ...SOUTHEAST GEORGIA... CITY SKY/WX TMP DP RH WIND PRES REMARKS SAVANNAH ARPT MOSUNNY 84 72 67 CALM 30.17S HUNTER AAF SUNNY 83 76 79 SW1 30.14F HX 91 FORT STEWART SUNNY 84 73 69 S3 30.15S STATESBORO NOT AVBL SYLVANIA SUNNY 84 76 75 CALM 30.17F HX 93 CLAXTON FAIR 82 73 74 CALM 30.17S ...CSRA...CENTRAL AND FAR SOUTHEAST GEORGIA... CITY SKY/WX TMP DP RH WIND PRES REMARKS THOMSON SUNNY 84 75 75 W3 30.21S HX 92 AUGUSTA-BUSH SUNNY 82 72 71 CALM 30.15S AUGUSTA-DANIEL SUNNY 83 72 69 CALM 30.17S SWAINSBORO FAIR 82 75 78 W3 30.18F VIDALIA PTSUNNY 82 72 69 NW6 30.18F EASTMAN FAIR 84 73 71 W3 30.21S HX 90 HAZLEHURST FAIR 85 74 70 NW3 30.18S HX 92 ALMA SUNNY 82 72 71 W5 30.18S WAYCROSS SUNNY 86 77 73 CALM 30.18S HX 97 JESUP FAIR 88 73 62 W3 30.18S HX 96 BAXLEY FAIR 84 73 70 W5 30.18S HX 91 BRUNSWICK SUNNY 84 72 65 CALM 30.18S SAINT SIMONS SUNNY 83 72 69 SW5 30.18R $$ SCZ027-028-034-036>038-045-046-048>050-GAZ119-141-071500- ...LAKE AND SUPPLEMENTAL COASTAL OBSERVATIONS... STATION/POSITION TIME TEMP WIND PRES WAVE SWELL AIR SEA DIR/SP/G HT/PER HT/PER/DIR (UTC) (F) (DEG/KT/KT) (MB) (FT/S) (FT/S/D) UPR LAKE MARION NOT AVBL WINYAH BAY 1300 81 220/ 6 1020.0 LAKE MURRAY 1300 79 190/ 4/ 6 1020.3R ACE BASIN NERRS NOT AVBL FORT PULASKI 1400 83 83 200/ 2/ 5 1022.0S SAPELO ISLAND 1400 83 230/ 2 1022.0S $$ ANZ835-935-AMZ111-154-330-350-352-354-370-450-454-472-071500- ...C-MAN AND BUOY OBSERVATIONS... STATION/POSITION TIME TEMP WIND PRES WAVE SWELL AIR SEA DIR/SP/G HT/PER HT/PER/DIR (UTC) (F) (DEG/KT/KT) (MB) (FT/S) (FT/S/D) BUOY 41004 1350 81 83 210/ 10/ 12 1021.2R 3/ 8 2/ 8 BUOY 41008 1350 78 79 210/ 6/ 8 1022.1R 2/ 8 2/130/ 8 FOLLY BEACH CMAN 1400 82 220/ 7/ 9 1021.6R CAPERS NEARSHORE NOT AVBL FRIPP NEARSHORE 1300 82 220/ 4/ 8 1021.2R STATION/POSITION TIME TEMP WIND PRES WAVE SWELL AIR SEA DIR/SP/G HT/PER HT/PER/DIR (UTC) (F) (DEG/KT/KT) (MB) (FT/S) (FT/S/D) 5E ST. MARYS GA 1321 77 N/A 2/ 8 FRYING PAN BUOY 1350 81 80 240/ 8/ 8 1022.0S 3/ 8 3/140/ 8 BUOY 41025 1350 81 83 230/ 10/ 12 1021.0S 3/ 8 2/130/ 8 CAPE LOOKOUT NC 1400 81 240/ 9/ 12 1021.0F BUOY 41002 1350 82 81 230/ 6/ 10 1023.5R 4/ 9 3/130/ 9 BUOY 41010 1320 82 83 180/ 4/ 4 1022.7R ST AUGUSTINE FL 1400 72 71 160/ 6/ 6 1023.2R $$

USA.gov is the U.S. government's official web portal to all federal, state and local government web resources and services.